Location: Maignaut
(43.8886°N, 0.4051°E)
Time: 08:16:39
(UTC+00:00)

Lacrosse 5 - Pass Details

Date: 27 February 2020
Orbit: 715 x 724 km, 57.0° (Epoch: 21 March)

Event Time Altitude Azimuth Distance (km) Brightness Sun altitude
Rises 18:44:04 0° 214° (SW) 3,103 5.7 -11.7°
Reaches altitude 10° 18:46:28 10° 210° (SSW) 2,187 4.8 -12.1°
Maximum altitude 18:51:24 59° 132° (SE) 825 1.9 -13.0°
Enters shadow 18:55:37 14° 56° (NE) 1,921 3.6 -13.8°
